GFSSGP_700_spd_078.txt.gz
Wind_Speed
26 28 29 28 21 26 42 34 25 28 26 24 23 23 14 21 14 15 12 20 20 16 15 17 15 15 13 11 10 9 10 11 15 18 21 22 21 19 18 18 14 12 11 11 11 11 11 11 11
25 28 29 29 29 38 35 34 29 24 23 26 32 30 22 18 20 17 12 18 22 17 18 17 17 16 14 13 12 11 13 19 18 18 20 20 20 20 19 16 14 14 13 12 11 11 11 10 9
22 28 30 30 35 46 35 34 35 25 22 28 34 35 33 24 22 24 17 17 22 21 20 18 17 16 15 14 14 15 18 21 20 19 19 20 20 19 17 14 15 15 14 13 12 11 9 8 7
25 28 34 34 37 32 40 34 27 31 26 29 27 36 36 25 20 26 19 14 24 25 23 19 17 17 17 17 17 19 22 26 23 22 22 21 19 18 17 17 18 17 16 14 12 10 8 7 7
29 31 31 35 39 35 29 34 29 32 28 24 31 28 36 40 25 19 19 17 26 26 23 21 19 20 19 19 20 21 23 29 27 25 23 21 19 18 19 20 19 17 16 13 11 10 9 7 7
32 32 28 40 36 36 34 27 33 28 26 31 24 24 27 36 25 19 20 21 23 24 24 23 22 21 20 22 23 23 24 30 30 27 24 20 20 22 22 21 20 18 15 13 12 10 8 6 5
33 28 35 34 31 36 30 33 31 33 32 29 31 33 29 29 43 20 22 26 25 26 25 24 25 24 23 24 25 25 25 28 30 29 25 23 24 24 23 22 19 16 15 13 11 8 5 3 2
27 26 34 36 34 37 28 31 31 30 33 27 25 33 35 34 33 47 26 27 25 28 28 28 27 26 25 27 27 27 27 28 29 28 27 27 26 25 23 20 19 16 14 11 8 6 4 1 1
25 28 33 36 35 33 28 30 32 32 30 27 26 34 25 35 32 41 34 33 30 34 29 30 30 27 29 27 29 30 30 30 30 30 29 28 27 25 23 21 18 15 12 9 7 5 3 3 3
29 30 33 29 31 28 29 28 26 26 33 27 22 25 33 30 34 35 61 53 15 26 31 32 32 30 31 31 32 32 32 32 32 32 32 29 27 26 24 21 17 14 11 8 7 5 5 5 5
30 38 26 26 26 22 29 27 32 22 28 29 21 21 28 28 32 32 46 49 49 18 33 35 33 33 34 34 33 34 34 33 33 32 31 30 28 26 22 18 15 13 11 10 8 7 7 6 6
29 31 31 34 27 21 29 26 26 31 35 36 21 23 27 25 28 26 25 35 51 24 35 37 34 35 35 36 35 34 35 35 34 34 33 30 27 23 20 18 16 14 12 11 10 9 8 7 7
25 28 28 29 30 27 26 30 32 30 35 31 31 26 25 27 32 33 28 30 36 26 22 34 32 34 36 37 37 36 36 37 36 35 32 29 27 24 22 19 17 15 15 14 13 11 10 9 8
23 24 27 28 27 27 29 31 26 33 27 31 37 31 29 29 29 32 22 18 40 31 23 23 35 33 34 35 36 37 38 37 36 34 32 29 27 25 22 21 19 18 17 16 15 15 13 12 10
24 29 27 28 30 28 30 30 36 29 25 30 31 35 31 28 25 28 21 16 20 23 30 27 36 37 32 32 34 35 36 36 36 34 33 31 29 27 25 23 21 19 19 18 17 17 16 15 13
24 23 26 22 29 29 28 36 29 26 25 33 27 38 33 28 24 25 24 16 9 17 33 31 33 35 31 30 33 33 34 35 35 34 31 30 29 28 26 24 23 22 21 20 20 20 20 19 17
21 19 28 18 24 25 34 25 20 27 33 27 32 39 41 28 27 26 28 22 15 18 29 35 40 36 30 25 29 30 32 32 34 33 31 30 31 30 28 26 25 25 24 23 23 24 24 23 21
10 19 15 23 20 32 30 26 12 22 25 29 34 40 39 23 27 31 30 27 14 5 31 28 38 37 31 23 24 26 30 28 31 28 28 29 31 32 32 28 28 29 27 26 25 26 27 26 25
26 13 17 20 18 29 26 24 18 19 23 28 34 32 28 27 30 31 31 26 15 13 14 37 37 34 37 39 31 27 31 28 26 27 27 27 29 29 31 28 29 28 30 29 28 28 30 30 27
11 18 13 14 17 24 29 18 27 12 19 27 32 33 26 28 24 40 33 31 16 24 17 17 14 15 22 17 46 33 37 37 39 31 35 35 34 31 33 30 29 26 27 29 30 30 31 31 31
14 19 15 13 18 17 12 12 24 18 18 26 32 23 23 23 19 27 17 11 11 13 24 23 19 8 3 6 8 32 39 38 52 44 43 46 46 40 38 37 35 32 30 29 28 30 30 29 28
13 19 23 14 10 6 18 5 1 20 27 20 27 30 22 13 22 14 10 9 4 4 5 8 10 14 19 17 18 13 25 30 33 45 50 44 60 54 49 51 43 42 29 29 29 30 31 30 31
6 11 4 11 4 7 10 6 9 12 21 26 29 32 24 24 14 20 15 12 10 8 5 8 12 10 11 12 18 19 23 17 31 27 28 34 29 55 60 48 40 21 29 30 40 31 30 33 33
17 12 7 7 4 3 6 2 6 5 7 18 24 28 26 26 23 17 16 15 12 10 10 10 11 12 12 14 14 16 19 17 14 11 17 14 15 24 18 34 17 21 33 34 32 30 31 33 36
19 9 4 3 1 4 5 10 8 6 8 23 21 26 26 24 19 15 12 11 12 13 14 15 19 22 22 20 20 17 16 16 15 14 16 16 17 15 20 23 16 20 23 23 25 27 29 31 38
10 1 2 4 3 4 9 8 6 12 10 12 29 25 22 22 19 14 14 15 14 13 13 12 12 14 18 20 24 27 25 21 20 20 20 18 18 19 21 22 21 23 22 22 22 27 37 34 39
3 6 8 12 9 7 6 8 13 16 14 15 22 22 19 16 14 14 8 13 13 11 10 10 9 10 12 15 19 25 26 23 22 22 23 25 27 26 25 25 23 23 23 25 25 26 26 26 24
8 8 5 4 3 5 4 7 10 15 17 19 19 16 13 12 11 9 11 12 12 11 11 12 13 14 13 13 15 17 23 27 28 29 29 28 27 28 27 27 26 24 24 23 22 22 20 19 14
7 5 6 7 4 3 5 5 11 15 17 18 20 19 15 12 11 11 8 8 8 10 11 12 13 14 15 16 17 19 21 23 26 28 29 30 29 29 28 27 26 25 23 21 18 17 17 17 16
10 9 6 3 2 6 7 6 20 20 18 15 15 15 16 14 12 10 9 9 7 7 7 8 10 11 13 14 15 17 18 20 22 23 24 25 27 27 28 27 26 24 22 18 17 17 19 19 21

GFSSGP_700_spd_081.txt.gz
Wind_Speed
23 26 26 26 17 23 36 38 29 22 30 25 23 21 18 22 23 19 17 20 26 23 22 14 16 16 15 12 12 11 11 12 14 16 17 21 22 18 17 16 14 12 11 10 10 9 8 8 7
20 23 23 20 28 33 34 28 32 26 20 20 27 26 21 17 26 22 18 16 23 23 20 18 18 16 15 13 12 12 12 12 15 17 21 21 21 18 18 17 14 13 12 11 11 9 9 8 7
18 20 21 20 35 44 32 22 24 26 24 21 21 25 21 24 30 30 22 17 20 23 20 21 19 17 16 15 14 13 14 17 18 20 21 21 20 19 19 16 15 14 13 12 11 10 8 7 7
20 23 28 31 33 30 35 26 21 24 24 24 23 28 34 31 29 29 27 21 21 26 24 22 20 18 17 17 16 16 20 20 19 20 21 22 22 21 19 16 15 16 15 13 11 10 8 6 6
23 18 28 30 38 31 23 23 27 25 30 27 30 29 19 35 30 29 29 21 17 25 25 22 19 19 18 19 18 19 24 21 22 20 23 24 22 20 18 17 17 17 15 13 11 8 7 6 5
19 22 28 38 35 28 32 25 23 32 26 31 27 30 30 34 32 32 33 37 21 20 23 22 23 21 20 19 21 22 27 25 24 24 25 25 22 20 19 20 19 18 15 13 10 8 7 6 4
27 23 34 34 31 30 28 28 30 27 32 31 31 32 29 28 30 35 39 29 31 29 26 25 25 24 22 21 23 25 29 30 27 27 27 25 23 21 22 22 20 18 15 12 11 9 6 4 2
22 25 34 36 35 34 23 28 28 32 31 30 30 32 32 35 36 26 40 50 35 31 32 25 26 25 23 24 26 27 29 34 32 30 27 24 23 24 24 23 21 17 15 14 11 8 5 4 2
24 27 34 36 34 31 24 27 27 29 30 31 31 34 26 33 32 38 42 56 11 37 32 24 26 26 24 25 28 29 30 35 36 32 27 24 26 27 26 24 21 19 17 14 11 8 6 5 4
28 27 34 28 26 30 27 29 27 28 30 31 29 29 24 37 28 30 35 39 63 32 30 29 21 28 26 27 27 31 31 34 37 34 30 28 29 28 28 24 22 19 16 13 10 9 8 7 6
24 33 26 24 27 27 27 30 27 29 32 28 29 29 25 40 40 40 36 38 46 60 33 24 35 29 32 33 31 33 33 34 36 34 33 34 33 30 27 26 23 19 16 13 11 9 9 8 7
27 27 27 28 28 26 26 24 29 29 32 27 28 29 25 30 29 37 32 31 41 46 53 35 31 23 38 36 35 33 35 34 36 36 36 35 33 30 29 26 23 19 16 14 12 11 10 10 9
26 26 28 27 28 30 28 28 27 28 25 29 24 34 27 30 30 28 22 23 21 31 48 42 21 31 44 41 38 36 36 36 35 37 36 34 32 31 28 26 23 20 17 16 14 13 13 12 11
22 23 25 27 29 26 28 31 26 30 28 25 27 28 27 23 28 27 23 24 24 25 38 47 30 31 36 42 41 38 36 37 38 38 37 37 35 33 30 26 24 21 19 18 16 16 15 15 14
20 26 28 31 26 29 24 29 34 31 22 22 32 28 32 27 24 27 20 20 21 22 22 22 35 29 22 38 41 38 37 37 38 39 38 37 35 33 30 27 25 23 20 19 18 18 18 18 17
21 24 28 19 25 28 27 30 33 26 25 27 22 26 29 38 25 27 21 19 19 20 13 26 25 24 28 34 36 39 39 37 38 38 37 36 34 31 29 27 25 24 22 21 21 20 21 21 21
16 23 22 23 21 23 29 31 25 18 26 25 24 22 21 31 34 26 24 19 20 20 14 27 18 19 30 28 32 33 35 35 36 36 35 34 32 31 29 28 27 25 25 23 23 23 23 24 24
16 17 25 22 18 24 27 27 8 19 20 26 22 21 25 34 33 34 24 24 26 25 14 16 26 25 31 28 27 28 32 34 35 35 34 33 32 31 31 30 30 28 27 27 26 25 26 26 26
28 29 20 18 19 22 30 24 24 15 21 18 21 22 28 36 34 42 31 31 25 26 21 20 29 37 41 35 28 27 29 29 29 31 32 33 33 33 32 32 31 31 31 28 29 29 28 28 29
23 21 24 20 20 19 24 21 26 28 16 15 20 21 25 24 27 39 36 36 29 14 11 21 28 39 42 37 32 32 27 29 31 33 32 29 28 29 28 29 31 31 32 28 29 30 30 31 32
23 24 20 12 23 20 21 15 21 21 22 14 18 23 18 24 28 27 17 38 17 16 19 17 19 40 39 25 33 36 32 29 28 33 35 31 28 32 33 31 34 34 34 31 34 29 30 31 32
16 14 9 19 18 6 21 7 9 15 18 20 20 18 22 25 20 16 15 31 18 8 21 24 23 24 26 36 32 16 31 32 30 32 41 41 43 37 41 42 43 43 40 40 44 38 33 33 33
14 16 9 6 8 12 13 4 3 11 11 15 11 19 20 20 15 18 10 11 4 9 11 10 9 4 4 2 8 25 16 20 41 39 43 45 40 47 50 53 50 52 50 50 50 37 38 35 38
8 3 5 0 4 5 6 1 7 5 13 22 13 24 14 15 11 14 19 13 10 10 10 8 3 6 6 5 7 10 14 21 15 15 14 24 39 17 46 65 48 49 52 53 52 62 31 28 33
13 11 2 5 1 4 5 8 4 2 14 21 19 23 19 14 11 14 15 11 10 10 5 6 7 10 8 9 12 13 14 12 11 10 10 11 8 9 9 12 13 17 41 50 39 29 30 30 35
3 6 6 2 3 4 7 6 6 9 9 16 18 23 21 21 21 18 10 7 5 4 4 5 6 8 10 13 14 17 19 18 17 15 16 13 14 13 15 17 17 13 15 20 21 18 18 19 16
2 3 1 6 12 9 4 4 11 10 14 16 17 16 20 23 19 17 14 9 5 7 7 8 9 9 10 13 15 16 18 20 20 19 18 18 18 19 21 20 20 18 19 18 19 20 23 23 24
7 5 3 3 2 5 6 13 9 11 16 17 16 13 14 17 14 11 10 5 8 9 10 9 10 11 12 11 11 12 12 16 20 22 23 23 24 25 23 22 23 23 22 21 19 21 22 24 25
7 8 4 3 5 2 4 5 5 8 16 21 20 18 17 16 13 14 13 10 10 10 10 9 10 10 10 11 13 14 15 17 18 19 21 24 25 25 27 27 25 25 24 24 23 23 23 23 22
14 13 8 5 5 7 13 5 10 9 14 17 18 19 18 16 13 11 10 10 9 6 5 6 7 8 9 10 12 13 15 16 17 18 20 22 23 24 26 27 28 27 25 25 24 23 21 21 20

GFSSGP_700_spd_084.txt.gz
Wind_Speed
21 20 20 23 14 18 22 28 22 22 18 20 22 24 25 22 23 22 21 18 20 24 24 21 14 16 14 14 13 13 13 14 16 17 17 19 21 18 16 16 14 12 11 9 7 6 7 7 7
20 20 21 17 21 26 25 24 26 26 20 13 22 30 26 18 24 23 19 24 24 27 28 22 18 16 16 15 14 13 13 14 16 18 17 21 22 20 17 16 14 13 11 10 9 8 7 7 6
19 20 23 16 26 33 23 20 19 17 22 18 20 22 24 28 28 25 20 19 21 24 28 23 21 19 17 17 15 15 14 15 17 19 20 22 22 20 18 17 15 13 12 10 10 9 8 7 5
21 23 26 26 26 26 37 25 24 16 20 25 23 21 27 33 32 26 26 28 20 19 21 22 22 18 18 18 17 16 15 16 18 20 23 23 23 20 19 17 15 14 12 11 9 8 7 6 6
21 24 29 23 33 28 21 17 19 24 19 25 29 26 27 32 37 28 22 29 29 24 28 23 20 19 18 19 17 17 18 19 19 21 22 23 24 22 20 17 16 15 14 12 11 8 7 6 6
20 25 20 28 31 23 23 25 21 22 25 21 30 26 25 32 32 33 29 30 29 25 34 22 23 24 20 19 18 19 22 20 20 22 23 25 26 24 21 18 17 17 15 13 11 9 8 7 5
25 23 28 26 26 24 23 21 25 26 23 28 26 28 32 35 24 31 26 32 30 30 31 27 26 26 23 21 20 22 26 24 23 23 26 26 27 24 21 20 20 19 17 14 11 10 8 6 4
23 25 31 31 29 31 24 21 25 25 31 24 25 27 23 30 33 25 37 30 36 33 37 43 24 25 21 21 21 24 28 29 26 26 28 28 27 24 23 22 22 20 17 14 12 10 8 6 4
21 26 30 29 29 29 23 25 25 22 29 29 31 29 26 27 30 33 30 38 34 40 44 24 32 29 24 21 23 26 29 34 29 29 29 28 26 24 25 24 23 21 18 16 13 10 8 6 4
24 31 33 27 21 24 24 27 26 26 26 31 32 32 30 31 32 32 31 42 43 42 47 24 23 27 25 22 25 28 32 36 37 32 30 28 26 26 28 26 24 21 19 16 13 10 8 7 6
23 33 29 25 21 22 30 28 26 30 34 27 27 29 35 37 41 38 38 43 33 33 42 70 56 5 30 29 27 31 34 36 41 39 33 29 28 30 29 27 25 22 20 17 14 11 10 8 8
27 28 27 24 22 28 28 28 26 33 31 26 28 26 26 30 42 26 38 41 42 40 39 57 64 58 25 31 34 38 37 38 40 43 37 33 32 32 30 29 26 24 21 17 14 12 11 10 10
24 25 25 26 25 29 32 33 29 38 34 25 26 26 28 33 36 45 29 27 35 35 28 41 57 62 30 42 22 41 37 39 37 39 40 39 34 34 32 30 27 25 21 18 16 14 13 12 12
24 26 28 26 26 28 29 32 34 37 37 23 22 25 34 27 43 35 25 26 23 22 20 25 25 39 31 34 22 40 36 38 37 37 40 39 34 33 31 30 28 25 22 18 17 16 15 14 14
16 24 27 28 32 37 22 36 36 33 33 31 28 29 26 37 33 26 21 23 17 19 16 21 19 32 25 26 22 31 32 32 34 35 37 36 36 36 34 31 28 25 23 21 19 18 17 16 16
23 24 31 28 25 23 28 39 34 34 32 34 27 25 21 33 27 30 27 21 22 21 16 18 16 34 39 35 30 30 29 28 30 34 36 37 36 35 34 32 29 26 24 22 20 19 18 18 18
19 27 29 31 19 19 21 35 30 27 24 29 23 26 22 23 25 30 33 22 29 21 20 18 19 15 25 21 28 30 30 31 30 31 34 35 36 36 34 32 30 28 25 23 22 21 21 19 20
17 21 23 23 23 22 27 33 25 11 21 28 22 21 22 22 22 28 35 30 28 21 20 15 20 20 20 26 29 35 32 29 30 29 32 33 34 34 34 32 30 29 28 26 24 23 22 22 22
25 26 33 32 23 24 27 24 22 13 20 19 25 25 24 21 30 32 27 32 29 22 22 20 18 20 11 15 33 28 30 34 32 31 30 33 33 33 34 32 30 30 29 28 28 26 26 24 25
26 30 36 31 16 16 15 22 18 19 15 15 20 26 21 22 27 27 23 28 31 23 26 24 22 28 19 30 30 33 32 32 30 30 34 33 34 34 32 34 32 32 31 31 30 27 29 28 29
27 29 30 31 25 13 8 16 18 20 21 15 16 17 21 20 17 24 21 21 28 20 15 20 18 22 32 34 39 33 36 33 32 29 29 31 33 32 30 27 26 26 27 28 32 32 32 29 28
20 19 19 17 12 7 19 7 14 17 16 22 18 15 20 18 13 12 18 14 19 21 21 12 21 23 31 36 25 26 32 37 29 33 32 31 41 34 33 32 35 34 33 33 31 34 36 45 33
9 4 3 8 15 9 22 5 5 11 16 16 12 15 14 11 14 14 13 16 15 7 16 18 15 12 19 35 20 24 17 27 35 36 33 36 44 34 38 35 39 39 40 47 52 44 43 45 45
11 4 6 5 11 4 9 4 2 2 7 13 12 14 14 19 15 9 6 9 20 11 6 13 12 8 10 3 2 11 32 15 40 42 39 24 26 37 44 42 36 36 46 51 51 56 54 55 51
4 9 4 5 2 3 9 2 3 2 10 19 12 13 14 10 9 7 7 9 7 14 17 13 10 6 6 6 6 5 5 9 3 5 2 6 4 4 4 13 20 36 24 32 50 67 69 40 45
2 7 4 3 3 3 8 3 5 3 15 15 15 16 14 10 11 9 14 15 18 15 11 7 4 3 3 7 8 9 10 10 8 9 11 12 8 10 13 11 14 20 14 17 21 12 23 21 25
7 6 8 3 10 3 5 4 10 10 14 18 18 17 16 18 19 18 15 13 14 12 9 5 3 3 5 7 8 10 11 13 13 14 15 14 15 14 15 17 18 18 19 19 20 16 17 22 23
10 16 7 5 2 3 3 9 9 13 17 16 19 17 15 14 13 16 13 11 11 8 7 6 6 6 6 7 7 7 8 10 11 13 15 17 17 18 19 20 19 18 19 19 20 20 20 25 23
17 17 6 5 4 1 3 5 9 12 16 18 15 13 11 10 15 15 13 9 8 6 5 6 7 8 8 9 10 10 11 11 12 14 16 17 19 20 21 21 21 22 23 23 24 24 24 24 20
20 19 14 5 6 10 10 5 2 7 13 17 20 20 20 17 15 15 12 10 8 7 6 4 4 5 6 7 9 10 11 12 14 15 16 18 18 20 21 21 21 22 25 26 27 27 24 23 23

GFSSGP_700_spd_090.txt.gz
Wind_Speed
17 17 15 17 13 11 18 20 22 7 7 10 9 15 18 22 20 18 18 15 11 14 15 15 11 13 12 13 15 14 13 12 13 14 15 16 17 18 18 16 15 13 10 8 6 4 4 5 5
19 18 16 19 17 17 18 24 23 16 5 13 17 15 15 20 23 28 24 22 16 9 13 15 14 16 17 17 17 17 15 14 14 15 17 18 19 19 19 17 16 14 12 10 8 6 6 6 5
20 19 18 13 21 24 20 25 19 10 22 18 17 17 15 15 19 25 24 20 14 10 14 15 16 17 19 19 20 19 17 16 16 16 16 19 20 20 19 18 18 16 14 12 10 8 8 7 5
20 20 20 23 23 16 23 22 9 19 19 18 14 13 10 13 19 22 17 18 14 18 15 13 14 18 21 20 22 20 18 17 17 17 19 19 21 22 21 19 18 17 15 13 12 10 9 7 6
20 23 24 26 29 30 18 9 17 22 22 17 16 15 13 13 21 25 24 19 18 19 20 18 15 15 21 23 23 22 19 18 18 18 19 20 23 22 23 20 19 18 17 15 12 11 10 8 7
19 23 21 29 35 30 23 18 15 16 24 22 18 15 14 9 19 23 27 27 24 24 23 21 24 19 21 23 23 22 20 17 17 19 20 21 23 22 24 22 21 20 18 16 14 12 10 9 8
17 22 28 31 32 29 24 22 26 23 23 26 18 19 18 9 13 20 22 24 30 28 26 29 26 29 31 25 26 26 24 19 16 17 20 22 25 26 25 24 22 21 19 17 15 13 11 10 9
18 22 29 32 33 35 23 21 29 30 30 26 16 10 14 15 11 16 23 21 25 26 26 28 25 29 27 32 29 27 25 24 19 17 21 26 28 29 27 25 24 23 21 19 16 14 13 11 10
18 23 29 31 28 27 23 28 28 32 34 29 24 18 15 18 20 18 20 23 23 26 27 28 30 28 26 31 32 33 29 26 24 22 26 29 32 31 28 27 26 25 23 21 18 15 14 12 10
21 27 26 28 26 27 26 27 30 37 37 37 30 23 20 21 19 19 25 27 26 24 27 27 31 27 27 29 32 37 34 32 31 24 27 30 31 32 30 30 28 26 25 23 20 17 15 13 11
23 31 26 28 27 28 31 31 30 34 42 39 39 31 22 19 23 21 22 31 27 28 27 28 30 32 31 28 25 34 33 35 37 33 27 32 33 34 31 34 30 28 27 25 22 19 16 14 12
24 26 26 28 27 31 34 36 36 36 41 43 42 36 29 21 21 21 24 26 28 30 30 29 34 36 35 39 40 45 39 37 37 40 36 31 34 37 43 37 30 29 28 25 23 20 18 15 12
22 25 26 29 30 30 31 36 38 42 38 40 46 40 33 23 23 19 14 22 27 29 34 37 37 40 43 45 44 47 50 48 34 36 40 35 42 39 43 32 30 31 30 27 25 22 18 16 14
22 25 26 29 27 28 32 34 32 41 36 41 42 45 41 30 21 25 18 17 23 25 33 35 36 33 36 43 48 48 49 51 32 29 37 48 40 43 35 30 30 34 32 29 26 23 20 17 16
23 28 28 25 25 28 23 41 39 34 33 37 44 48 48 39 29 24 24 21 20 28 35 36 35 43 40 37 38 46 50 61 62 32 38 51 47 35 36 36 34 35 34 31 29 27 23 21 18
22 26 29 19 15 16 20 40 23 10 17 32 40 48 50 44 34 31 28 26 23 32 32 25 35 39 35 28 33 36 40 46 59 48 40 52 52 46 35 32 34 37 36 34 31 29 25 22 19
16 17 20 20 10 13 13 30 20 26 26 21 30 40 51 49 38 32 29 25 24 31 31 31 31 32 28 27 29 30 30 29 50 38 44 52 47 50 41 38 37 40 38 35 34 31 27 25 22
10 16 23 24 9 22 30 33 27 20 17 14 17 26 44 45 40 31 25 30 27 34 36 34 39 35 27 29 26 21 26 24 25 33 48 45 45 40 44 39 33 40 40 38 37 33 30 26 24
13 20 27 24 23 28 28 28 17 11 16 16 13 14 23 30 38 29 29 31 37 37 29 29 34 28 29 28 28 26 24 19 26 34 36 44 35 37 37 42 40 42 41 39 37 34 31 28 27
17 23 29 31 18 16 22 30 20 8 14 4 6 11 10 20 26 35 36 31 36 28 25 25 26 29 24 32 26 22 24 20 26 35 34 43 42 37 37 39 41 42 42 41 38 35 31 30 28
19 23 25 27 28 19 18 23 7 8 10 10 7 6 10 15 20 23 26 28 28 27 26 24 25 29 26 31 27 26 27 20 26 27 33 37 38 33 33 35 37 38 39 38 36 34 32 32 29
21 12 16 15 9 7 9 5 2 9 9 5 5 4 5 15 19 22 21 28 26 23 21 24 25 26 29 32 35 29 28 33 36 26 37 33 37 41 38 35 36 37 36 36 36 35 35 33 32
13 11 9 10 7 9 8 8 4 9 11 11 11 13 13 15 16 18 20 27 19 15 15 17 21 25 28 34 26 17 30 31 34 32 38 34 34 37 38 39 40 39 38 34 33 32 31 31 34
10 11 13 8 6 4 6 11 4 4 11 11 14 12 14 17 18 18 16 15 13 14 14 15 18 19 20 23 22 21 17 25 21 25 30 26 35 31 31 38 43 36 38 32 40 35 35 36 36
9 15 3 2 2 2 5 4 6 8 9 9 8 8 12 12 14 15 20 16 20 15 12 12 20 19 14 14 29 10 22 17 21 27 28 32 22 31 30 34 32 41 41 38 38 39 41 43 38
11 11 3 3 1 1 3 2 4 11 4 9 9 9 10 10 14 17 11 14 15 13 15 14 12 15 8 7 16 19 7 27 19 18 27 26 32 28 20 19 25 45 42 47 46 50 47 49 43
8 9 7 1 3 2 2 6 5 4 4 9 11 9 10 6 11 17 11 17 17 20 17 17 16 13 11 9 9 5 4 4 6 21 15 11 19 34 28 20 15 18 23 25 25 24 22 25 28
9 11 4 4 1 2 4 4 10 5 3 7 8 6 5 10 14 15 14 19 13 15 14 11 10 9 7 7 6 5 4 2 3 6 5 3 8 15 19 19 20 23 26 25 25 27 28 29 28
12 8 5 4 1 1 2 4 15 6 4 5 8 12 10 13 12 14 14 15 19 16 14 11 10 9 7 5 4 5 7 6 5 5 7 9 12 16 18 20 23 24 25 26 27 30 30 30 31
18 14 3 1 2 6 5 5 12 9 10 9 10 8 10 8 12 17 20 21 20 15 13 10 7 5 3 4 4 6 8 10 10 11 11 13 16 19 23 25 27 28 29 30 31 31 32 33 33

GFSSGP_700_spd_093.txt.gz
Wind_Speed
17 15 14 14 12 8 16 14 19 11 5 11 13 16 14 16 15 8 5 10 8 8 15 16 12 11 9 9 9 12 13 14 13 13 13 13 12 14 14 14 13 12 11 8 7 6 4 4 3
17 15 15 16 12 13 13 16 15 5 6 11 16 16 17 20 20 18 20 17 11 10 10 16 15 13 12 12 13 13 13 14 12 13 13 13 13 14 15 15 14 13 13 9 9 7 5 4 3
18 15 15 10 16 18 13 20 16 16 16 14 17 18 17 15 17 10 11 14 14 13 11 12 13 15 15 15 15 16 16 15 14 14 14 12 14 15 16 16 15 14 14 12 11 8 7 5 4
16 16 15 19 19 13 11 18 17 17 18 21 17 11 14 13 12 13 12 11 12 12 13 13 16 17 17 18 19 19 18 18 16 15 15 15 16 16 17 17 17 17 15 14 12 10 8 7 5
15 17 21 21 22 25 18 10 15 18 20 21 18 19 14 11 10 12 15 16 12 14 14 14 14 16 19 18 21 22 21 20 18 18 17 17 18 19 19 18 18 18 17 16 14 11 10 8 7
13 15 17 23 25 24 20 18 21 16 26 23 20 19 16 9 11 16 17 20 21 17 20 18 17 19 18 21 20 24 23 22 20 19 18 17 18 21 20 21 19 19 18 17 15 13 11 10 8
12 14 20 24 25 24 20 19 24 26 22 28 24 19 20 19 11 11 19 19 21 19 20 21 19 22 23 25 25 21 23 24 25 21 18 19 21 22 23 23 21 20 20 19 17 15 13 11 10
13 15 20 22 23 25 20 22 24 28 29 27 29 20 20 20 13 12 11 17 21 21 18 21 21 22 24 27 25 24 25 26 25 23 20 22 25 25 26 24 22 23 22 21 19 17 15 13 11
13 17 21 22 22 22 18 20 25 30 31 33 31 29 24 21 21 17 10 12 18 20 20 21 23 23 23 25 25 27 29 28 26 24 22 24 27 28 30 24 24 24 24 23 21 19 17 15 13
17 23 20 21 23 26 25 24 23 30 35 34 39 33 28 23 23 25 20 16 18 20 21 22 25 24 28 24 24 28 29 29 27 28 26 27 30 30 30 26 26 27 26 25 23 22 19 16 14
22 26 23 26 26 29 30 29 27 31 34 38 38 41 31 24 24 25 28 20 19 21 23 23 23 27 29 31 28 25 27 28 28 30 30 29 29 32 32 31 29 31 30 29 27 24 20 17 14
22 24 25 28 27 31 30 32 32 32 35 32 39 44 40 31 26 25 29 27 23 20 24 26 27 27 28 29 30 30 29 25 28 29 36 32 33 34 34 35 34 35 33 31 28 25 22 20 16
22 24 25 27 29 27 28 33 34 38 33 32 35 41 47 41 33 25 28 32 31 26 26 26 28 31 32 32 31 32 34 37 39 40 38 38 33 36 36 38 36 43 35 34 30 27 24 21 18
22 25 26 29 28 29 34 36 35 42 32 33 37 42 45 47 40 31 26 30 31 27 25 22 26 30 33 33 37 37 37 38 43 42 41 42 44 35 38 42 42 44 37 35 33 28 26 23 21
20 27 28 28 28 33 31 45 44 29 27 35 37 41 47 50 45 38 28 28 28 29 31 28 25 29 36 40 42 45 46 43 40 44 39 51 49 46 39 44 42 40 42 37 36 32 30 28 25
24 27 28 21 19 19 24 45 27 22 19 21 29 36 46 52 51 42 32 29 26 24 33 31 29 29 31 34 38 42 47 44 41 40 45 50 54 56 45 44 43 45 37 42 37 35 32 29 26
16 18 21 19 14 15 20 35 21 19 28 33 31 33 37 48 51 46 35 29 26 23 26 23 28 32 34 37 33 35 44 42 41 43 37 44 54 45 42 49 46 43 43 42 40 39 34 31 28
9 16 19 21 17 23 29 39 30 24 21 26 27 23 25 39 50 49 39 29 24 24 21 25 32 35 32 39 38 32 38 40 36 33 30 27 54 49 54 54 47 36 40 43 42 38 36 33 30
11 16 23 21 19 22 25 28 26 17 25 22 15 15 16 21 31 43 41 29 24 26 27 30 31 31 34 35 34 33 36 36 35 32 32 26 24 47 46 48 52 40 40 42 42 39 39 36 33
15 20 21 16 18 24 27 33 24 15 11 12 10 7 9 8 14 25 37 30 30 27 30 33 32 33 34 29 31 34 36 34 37 30 24 23 23 36 46 47 44 36 36 37 37 41 39 36 36
17 21 15 19 21 15 16 13 7 6 7 6 5 6 6 7 12 18 29 27 32 31 33 34 31 29 30 26 29 34 31 31 33 34 31 28 28 32 48 48 38 34 35 38 41 43 39 36 37
20 7 11 12 14 8 15 7 6 3 3 7 4 4 3 7 10 13 19 27 33 34 30 28 29 28 24 26 28 29 29 31 32 40 39 28 23 39 49 53 41 39 37 36 37 36 36 38 37
13 10 10 14 14 12 7 4 4 4 6 9 10 8 6 6 10 13 17 21 22 23 22 23 24 24 22 24 27 27 32 39 40 31 28 22 29 32 38 43 49 40 36 36 37 38 39 39 41
13 17 15 14 13 3 4 5 4 8 10 10 12 10 8 8 11 13 18 18 21 24 20 19 14 12 16 18 22 16 32 18 26 36 25 30 23 32 34 44 44 41 40 43 43 43 44 43 40
7 9 4 2 1 4 2 5 8 11 13 8 7 8 8 10 9 9 12 17 17 14 16 12 18 17 20 14 12 13 7 11 8 12 15 22 25 23 23 37 39 46 45 47 42 44 47 48 51
7 6 4 4 1 2 4 3 6 13 7 5 5 5 8 9 7 11 10 9 11 15 13 13 11 13 7 16 14 19 17 8 22 13 1 18 16 16 30 26 28 30 35 41 37 55 34 50 49
4 6 9 5 3 1 3 5 4 12 4 4 6 7 13 10 8 14 15 13 12 8 10 15 15 14 12 13 17 7 9 9 15 6 15 18 17 15 24 25 27 17 25 28 41 42 48 49 46
10 8 4 4 3 2 3 5 11 11 3 2 4 2 4 8 12 17 13 13 16 17 17 16 14 13 12 11 11 12 10 8 7 6 9 4 10 14 8 12 25 20 21 23 22 26 28 32 24
13 8 6 6 4 2 2 4 13 7 5 3 4 8 10 11 13 14 16 21 22 22 17 14 12 11 10 8 7 6 4 4 4 5 6 9 10 10 11 11 9 22 18 23 22 24 27 26 30
12 17 5 4 2 2 2 4 6 12 12 10 7 14 16 21 25 25 24 22 17 14 11 9 7 6 5 5 5 7 8 8 8 8 9 10 12 14 17 20 21 22 24 30 29 27 29 32 35

GFSSGP_700_spd_099.txt.gz
Wind_Speed
10 10 10 10 7 6 10 10 14 9 9 9 12 17 12 11 7 4 9 8 6 5 8 10 10 12 12 11 7 4 6 7 7 7 7 6 6 7 8 10 11 9 6 5 3 3 4 5 6
11 11 11 11 7 9 9 13 10 11 11 11 12 13 13 11 14 13 9 8 4 6 3 6 8 12 11 9 8 7 8 9 9 8 8 7 7 6 7 9 10 9 7 7 5 4 3 4 4
10 10 11 7 10 14 8 13 12 14 13 11 12 12 13 14 15 17 14 12 11 8 8 7 8 11 12 12 12 10 11 11 10 10 9 9 8 6 8 8 9 9 8 7 6 6 5 5 5
10 11 10 11 8 9 11 7 9 14 17 15 13 10 15 16 17 20 17 12 10 10 12 11 11 13 13 12 13 14 14 13 13 12 12 9 8 9 8 8 11 12 11 8 8 8 7 6 6
11 10 13 9 11 12 10 12 11 12 14 16 18 19 15 16 18 19 20 19 13 13 12 15 16 16 16 16 16 16 16 14 15 14 14 14 12 11 11 10 11 13 13 11 10 10 9 8 7
12 11 8 12 9 9 11 12 16 15 15 16 17 19 23 20 16 17 21 21 19 16 16 16 17 17 17 17 16 15 13 12 13 16 16 15 15 14 13 14 13 13 14 14 12 12 11 10 9
12 11 11 10 8 8 9 12 16 17 19 19 20 19 21 23 22 21 20 21 23 23 19 19 18 17 16 16 15 14 13 12 13 15 16 16 15 16 17 17 16 17 16 15 15 14 13 12 11
12 13 10 9 10 9 10 12 13 16 18 19 19 19 22 24 24 26 25 25 25 24 23 21 22 20 20 19 18 15 15 15 16 16 17 17 17 17 20 19 20 18 19 16 17 16 15 14 13
13 13 11 11 11 11 9 10 13 16 17 20 22 23 23 23 24 26 26 27 28 29 29 25 21 21 19 19 18 16 18 16 17 18 19 18 19 19 21 23 21 22 20 20 18 18 18 17 16
15 16 13 14 15 15 14 16 19 21 22 20 22 24 26 26 28 28 28 29 29 30 31 32 27 24 20 20 18 17 16 14 14 20 21 20 19 20 22 25 26 23 23 23 21 21 21 21 19
17 18 16 17 20 20 21 22 25 26 28 22 26 26 28 28 29 33 33 31 31 32 32 30 30 27 24 23 21 19 15 17 20 18 20 19 19 17 19 23 28 28 26 25 25 24 25 24 21
18 18 17 19 21 23 26 28 28 31 33 28 26 30 32 31 32 34 36 37 36 35 33 33 32 30 29 27 21 19 19 18 19 20 21 16 19 16 17 22 28 29 28 29 28 28 27 27 24
17 18 19 21 21 26 28 29 32 37 34 34 30 33 35 36 35 35 38 39 39 39 37 36 35 33 30 30 27 22 21 21 21 19 21 23 21 21 18 24 27 31 30 31 31 31 30 31 28
16 16 18 19 22 27 32 33 34 33 36 38 37 35 38 41 42 38 39 41 42 41 40 40 37 34 34 33 29 25 23 24 26 25 25 28 25 28 27 28 26 34 34 34 34 35 35 35 33
16 18 19 22 23 24 30 31 24 18 25 29 33 35 36 39 43 43 41 41 43 44 41 42 40 39 37 34 31 28 27 29 28 27 27 30 32 33 32 30 34 31 39 40 38 39 42 39 38
16 19 13 14 18 19 22 28 19 19 25 27 28 29 32 34 39 42 39 41 39 46 44 42 43 42 39 36 34 33 31 29 27 27 27 29 33 34 35 35 34 34 39 41 47 49 42 44 39
11 10 9 6 14 16 20 24 22 22 25 29 28 26 26 28 28 29 34 37 37 44 46 43 44 43 40 36 33 33 32 31 31 33 35 32 32 35 37 38 36 36 38 44 51 52 53 44 50
5 7 7 10 15 18 17 22 19 18 22 25 25 25 26 27 25 27 29 32 32 39 48 44 41 38 36 35 34 34 31 28 31 32 35 36 34 32 37 38 37 37 41 45 51 57 54 45 41
5 9 13 12 14 20 19 18 17 17 18 15 16 19 20 19 20 22 25 24 27 34 47 41 38 35 33 33 34 34 34 34 33 33 38 37 34 34 37 36 34 36 41 44 52 58 56 51 40
8 12 13 10 11 20 19 23 11 16 18 16 14 14 15 17 19 20 21 17 19 32 43 34 33 32 32 29 26 28 33 38 37 37 37 35 36 36 38 37 35 37 41 42 48 54 55 46 42
10 13 10 12 19 20 21 17 5 18 13 16 11 14 16 20 18 15 12 12 18 29 35 31 32 33 33 29 30 32 34 36 36 35 35 32 36 40 38 37 36 38 38 43 43 48 55 51 46
12 9 9 14 16 8 17 9 22 10 10 11 12 14 17 18 15 13 7 7 13 23 29 26 28 28 29 28 30 35 36 35 32 32 31 33 37 38 38 35 33 33 37 37 46 46 50 49 49
5 10 13 16 19 21 15 9 6 11 8 10 17 16 16 16 17 5 6 4 11 21 24 24 29 29 27 31 34 34 33 33 32 30 31 35 38 41 42 41 34 36 34 37 36 47 51 55 46
4 10 15 6 8 6 5 5 7 8 15 19 17 15 14 17 11 7 6 7 11 17 21 23 26 28 30 30 31 32 33 30 30 25 23 27 30 29 27 28 33 36 37 38 31 38 29 34 43
6 9 4 2 2 5 4 6 10 17 19 17 9 9 7 6 7 8 6 5 10 16 18 21 24 25 24 20 16 14 15 17 15 16 17 18 23 21 16 21 26 29 31 36 33 28 24 39 36
8 4 2 3 2 4 6 5 7 15 18 9 7 7 8 7 7 5 6 5 7 10 12 11 12 19 25 16 26 14 15 11 4 13 24 23 12 6 3 9 16 21 23 24 29 40 39 24 31
2 3 5 5 7 5 4 9 11 18 11 7 8 8 10 15 12 9 15 13 5 12 17 22 12 14 19 18 12 13 10 7 3 3 6 15 18 19 9 8 14 20 14 25 24 21 31 25 35
6 9 2 2 3 4 3 6 11 20 10 8 6 3 4 3 5 12 9 8 4 5 10 13 12 14 18 18 17 13 9 8 10 7 8 11 13 10 4 6 5 14 15 20 26 23 24 28 30
7 6 7 5 4 2 4 2 15 17 10 8 7 6 6 6 5 7 12 18 18 17 22 23 23 21 18 13 10 8 8 7 7 7 8 9 9 11 12 15 14 10 10 10 16 19 21 17 18
6 8 12 4 2 5 3 5 12 13 7 8 9 12 16 19 20 22 24 24 21 17 14 13 12 10 9 10 10 10 9 9 10 12 12 12 13 14 14 14 14 14 15 16 19 20 22 23 24